DW7589 Weather Reports


Display with metric or nautical units.
time (UTC)temp
F
wind
direction
speed
MPH
gust
MPH
rain 1hr
in
rain 24hr
in
rain mn
in
humidity
%
barometer
mb
20260509200417 92 0 0.0 0.0 0.00 0.00 0.00 43 1008.5
20260509195918 92 0 0.0 0.0 0.00 0.00 0.00 41 1008.5
20260509195432 92 0 0.0 0.0 0.00 0.00 0.00 43 1008.6
20260509194417 91 0 0.0 0.0 0.00 0.00 0.00 42 1008.6
20260509193917 91 0 0.0 0.0 0.00 0.00 0.00 41 1008.7
20260509193418 91 0 0.0 0.0 0.00 0.00 0.00 40 1008.7
20260509192918 91 0 0.0 0.0 0.00 0.00 0.00 43 1008.9
20260509192418 91 0 0.0 0.0 0.00 0.00 0.00 42 1009.0
20260509191918 90 0 0.0 0.0 0.00 0.00 0.00 44 1009.0
20260509191417 90 0 0.0 0.0 0.00 0.00 0.00 42 1009.1
20260509190918 90 0 0.0 0.0 0.00 0.00 0.00 43 1009.1
20260509190417 90 0 0.0 0.0 0.00 0.00 0.00 42 1009.2
20260509185918 90 0 0.0 0.0 0.00 0.00 0.00 43 1009.4
20260509185417 90 0 0.0 0.0 0.00 0.00 0.00 45 1009.3
20260509184918 90 0 0.0 0.0 0.00 0.00 0.00 47 1009.4
20260509184417 89 0 0.0 0.0 0.00 0.00 0.00 45 1009.4
20260509183918 89 0 0.0 0.0 0.00 0.00 0.00 45 1009.5
20260509183417 89 0 0.0 0.0 0.00 0.00 0.00 45 1009.6
20260509182419 90 0 0.0 0.0 0.00 0.00 0.00 44 1009.7
20260509181917 89 0 0.0 0.0 0.00 0.00 0.00 46 1009.8
20260509181418 89 0 0.0 0.0 0.00 0.00 0.00 47 1009.9
20260509180918 88 0 0.0 0.0 0.00 0.00 0.00 48 1009.9
20260509180417 88 0 0.0 0.0 0.00 0.00 0.00 46 1009.9
20260509175919 88 0 0.0 0.0 0.00 0.00 0.00 45 1010.0
20260509175417 87 0 0.0 0.0 0.00 0.00 0.00 45 1010.0
20260509174919 87 0 0.0 0.0 0.00 0.00 0.00 46 1010.1
20260509174417 88 0 0.0 0.0 0.00 0.00 0.00 45 1010.1
20260509173918 88 0 0.0 0.0 0.00 0.00 0.00 48 1010.3
20260509173418 88 0 0.0 0.0 0.00 0.00 0.00 46 1010.3
20260509172418 88 0 0.0 0.0 0.00 0.00 0.00 46 1010.3
20260509171917 87 0 0.0 0.0 0.00 0.00 0.00 49 1010.3
20260509171418 87 0 0.0 0.0 0.00 0.00 0.00 49 1010.3
20260509170918 87 0 0.0 0.0 0.00 0.00 0.00 49 1010.3
20260509170418 86 0 0.0 0.0 0.00 0.00 0.00 50 1010.3
20260509165917 86 0 0.0 0.0 0.00 0.00 0.00 49 1010.3
20260509165419 86 0 0.0 0.0 0.00 0.00 0.00 55 1010.3
20260509164919 86 0 0.0 0.0 0.00 0.00 0.00 56 1010.3
20260509164418 86 0 0.0 0.0 0.00 0.00 0.00 56 1010.3
20260509163918 86 0 0.0 0.0 0.00 0.00 0.00 56 1010.4
20260509162918 85 0 0.0 0.0 0.00 0.00 0.00 56 1010.7
20260509162418 85 0 0.0 0.0 0.00 0.00 0.00 58 1010.6
20260509161918 84 0 0.0 0.0 0.00 0.00 0.00 60 1010.6
20260509161418 84 0 0.0 0.0 0.00 0.00 0.00 61 1010.7
20260509160917 84 0 0.0 0.0 0.00 0.00 0.00 60 1010.7
20260509160418 84 0 0.0 0.0 0.00 0.00 0.00 59 1010.7
20260509155919 84 0 0.0 0.0 0.00 0.00 0.00 59 1010.7
20260509155417 83 0 0.0 0.0 0.00 0.00 0.00 63 1010.8
20260509154918 83 0 0.0 0.0 0.00 0.00 0.00 61 1010.7
20260509154419 83 0 0.0 0.0 0.00 0.00 0.00 62 1010.7
20260509153918 82 0 0.0 0.0 0.00 0.00 0.00 62 1010.8
20260509153418 82 0 0.0 0.0 0.00 0.00 0.00 62 1010.7
20260509152417 81 0 0.0 0.0 0.00 0.00 0.00 66 1010.8
20260509151918 80 0 0.0 0.0 0.00 0.00 0.00 66 1010.7
20260509151419 80 0 0.0 0.0 0.00 0.00 0.00 67 1010.7
20260509150918 80 0 0.0 0.0 0.00 0.00 0.00 68 1010.6
20260509150418 80 0 0.0 0.0 0.00 0.00 0.00 69 1010.6
20260509145918 79 0 0.0 0.0 0.00 0.00 0.00 73 1010.7
20260509145418 79 0 0.0 0.0 0.00 0.00 0.00 73 1010.7
20260509144917 78 0 0.0 0.0 0.00 0.00 0.00 73 1010.7
20260509143919 77 0 0.0 0.0 0.00 0.00 0.00 77 1010.6
20260509143417 77 0 0.0 0.0 0.00 0.00 0.00 79 1010.6
20260509142918 76 0 0.0 0.0 0.00 0.00 0.00 80 1010.5
20260509142417 76 0 0.0 0.0 0.00 0.00 0.00 81 1010.5
20260509141918 75 0 0.0 0.0 0.00 0.00 0.00 83 1010.6
20260509141418 75 0 0.0 0.0 0.00 0.00 0.00 84 1010.6
20260509140917 74 0 0.0 0.0 0.00 0.00 0.00 85 1010.6
20260509140418 74 0 0.0 0.0 0.00 0.00 0.00 87 1010.6
20260509135919 74 0 0.0 0.0 0.00 0.00 0.00 88 1010.6
20260509135419 73 0 0.0 0.0 0.00 0.00 0.00 89 1010.5
20260509134918 73 0 0.0 0.0 0.00 0.00 0.00 90 1010.7
20260509134419 72 0 0.0 0.0 0.00 0.00 0.00 90 1010.7
20260509133919 72 0 0.0 0.0 0.00 0.00 0.00 90 1010.6
20260509133417 72 0 0.0 0.0 0.00 0.00 0.00 90 1010.8
20260509132918 72 0 0.0 0.0 0.00 0.00 0.00 91 1010.6
20260509132418 72 0 0.0 0.0 0.00 0.00 0.00 91 1010.5
20260509131918 72 0 0.0 0.0 0.00 0.00 0.00 91 1010.3
20260509131417 71 0 0.0 0.0 0.00 0.00 0.00 91 1010.2
20260509130918 71 0 0.0 0.0 0.00 0.00 0.00 91 1010.1
20260509130418 72 0 0.0 0.0 0.00 0.00 0.00 91 1009.9
20260509125918 72 0 0.0 0.0 0.00 0.00 0.00 91 1009.9
20260509125420 72 0 0.0 0.0 0.00 0.00 0.00 91 1009.7
20260509124418 71 0 0.0 0.0 0.00 0.00 0.00 92 1009.7
20260509123919 71 0 0.0 0.0 0.00 0.00 0.00 92 1009.6
20260509123418 71 0 0.0 0.0 0.00 0.00 0.00 92 1009.4
20260509122418 71 0 0.0 0.0 0.00 0.00 0.00 93 1009.2
20260509121919 71 0 0.0 0.0 0.00 0.00 0.00 93 1009.0
20260509120918 70 0 0.0 0.0 0.00 0.00 0.00 93 1008.3
20260509120419 70 0 0.0 0.0 0.00 0.00 0.00 93 1008.7
20260509115418 70 0 0.0 0.0 0.00 0.00 0.00 93 1007.1
20260509114918 70 0 0.0 0.0 0.00 0.00 0.00 94 1007.2
20260509114419 70 0 0.0 0.0 0.00 0.00 0.00 94 1007.6
20260509113918 70 0 0.0 0.0 0.00 0.00 0.00 94 1007.8
20260509113418 70 0 0.0 0.0 0.00 0.00 0.00 94 1008.1
20260509112920 70 0 0.0 0.0 0.00 0.00 0.00 94 1008.4
20260509112417 70 0 0.0 0.0 0.00 0.00 0.00 94 1008.5
20260509111918 70 0 0.0 0.0 0.00 0.00 0.00 94 1008.6
20260509110919 70 0 0.0 0.0 0.00 0.00 0.00 94 1008.5
20260509105918 70 0 0.0 0.0 0.00 0.00 0.00 94 1008.6
20260509105419 70 0 0.0 0.0 0.00 0.00 0.00 94 1008.5
20260509104918 69 0 0.0 0.0 0.00 0.00 0.00 94 1008.8
20260509104418 69 0 0.0 0.0 0.00 0.00 0.00 94 1008.6
20260509102919 69 0 0.0 0.0 0.00 0.00 0.00 94 1009.1
20260509102418 69 0 0.0 0.0 0.00 0.00 0.00 94 1009.2
20260509101918 69 0 0.0 0.0 0.00 0.00 0.00 94 1009.2
20260509101418 69 0 0.0 0.0 0.00 0.00 0.00 94 1009.0
20260509100918 69 0 0.0 0.0 0.00 0.00 0.00 94 1009.1
20260509100419 69 0 0.0 0.0 0.00 0.00 0.00 94 1009.4
20260509095919 69 0 0.0 0.0 0.00 0.00 0.00 93 1009.5
20260509095419 69 0 0.0 0.0 0.00 0.00 0.00 93 1009.7
20260509094418 69 0 0.0 0.0 0.00 0.00 0.00 93 1010.0
20260509093918 69 0 0.0 0.0 0.00 0.00 0.00 93 1010.1
20260509093419 69 0 0.0 0.0 0.00 0.00 0.00 93 1010.2
20260509092919 69 0 0.0 0.0 0.00 0.00 0.00 93 1010.3
20260509092418 69 0 0.0 0.0 0.00 0.00 0.00 93 1010.5
20260509091919 69 0 0.0 0.0 0.00 0.00 0.00 93 1010.4
20260509091418 69 0 0.0 0.0 0.00 0.00 0.00 93 1010.5
20260509090918 69 0 0.0 0.0 0.00 0.00 0.00 93 1010.5
20260509090419 69 0 0.0 0.0 0.00 0.00 0.00 92 1010.5
20260509085919 69 0 0.0 0.0 0.00 0.00 0.00 92 1010.6
20260509085418 69 0 0.0 0.0 0.00 0.00 0.00 93 1010.6
20260509084918 69 0 0.0 0.0 0.00 0.00 0.00 93 1010.8
20260509084418 69 0 0.0 0.0 0.00 0.00 0.00 93 1010.9
20260509083918 70 0 0.0 0.0 0.00 0.00 0.00 92 1010.9
20260509083418 70 0 0.0 0.0 0.00 0.00 0.00 92 1010.8
20260509082919 70 0 0.0 0.0 0.00 0.00 0.00 92 1010.9
20260509082418 70 0 0.0 0.0 0.00 0.00 0.00 93 1011.0
20260509081919 70 0 0.0 0.0 0.00 0.00 0.00 93 1011.2
20260509081418 70 0 0.0 0.0 0.00 0.00 0.00 93 1011.4
20260509080918 70 0 0.0 0.0 0.00 0.00 0.00 93 1011.5
20260509080418 70 0 0.0 0.0 0.00 0.00 0.00 93 1011.5
20260509075919 70 0 0.0 0.0 0.00 0.00 0.00 93 1011.5
20260509075418 70 0 0.0 0.0 0.00 0.00 0.00 93 1011.3
20260509074918 70 0 0.0 0.0 0.00 0.00 0.00 92 1011.1
20260509074418 70 0 0.0 0.0 0.00 0.00 0.00 92 1011.1
20260509073418 70 0 0.0 0.0 0.00 0.00 0.00 92 1011.0
20260509072918 70 0 0.0 0.0 0.00 0.00 0.00 92 1010.9
20260509072418 70 0 0.0 0.0 0.00 0.00 0.00 92 1010.8
20260509071920 70 0 0.0 0.0 0.00 0.00 0.00 92 1010.7
20260509071418 70 0 0.0 0.0 0.00 0.00 0.00 92 1010.8
20260509070918 70 0 0.0 0.0 0.00 0.00 0.00 92 1010.8
20260509070418 70 0 0.0 0.0 0.00 0.00 0.00 92 1010.7
20260509065919 70 0 0.0 0.0 0.00 0.00 0.00 92 1010.7
20260509065418 70 0 0.0 0.0 0.00 0.00 0.00 93 1010.6
20260509064919 70 0 0.0 0.0 0.00 0.00 0.00 93 1010.5
20260509064418 69 0 0.0 0.0 0.00 0.00 0.00 93 1010.3
20260509063918 69 0 0.0 0.0 0.00 0.00 0.00 92 1010.3
20260509063418 69 0 0.0 0.0 0.00 0.00 0.00 92 1010.5
20260509062919 69 0 0.0 0.0 0.00 0.00 0.00 92 1010.6
20260509061419 69 0 0.0 0.0 0.00 0.00 0.00 92 1010.3
20260509060918 69 0 0.0 0.0 0.00 0.00 0.00 92 1010.2
20260509060419 69 0 0.0 0.0 0.00 0.00 0.00 92 1010.3
20260509055919 69 0 0.0 0.0 0.00 0.00 0.00 92 1010.3
20260509055420 69 0 0.0 0.0 0.00 0.00 0.00 91 1010.2
20260509054920 69 0 0.0 0.0 0.00 0.00 0.00 91 1010.0
20260509054418 69 0 0.0 0.0 0.00 0.00 0.00 91 1010.0
20260509053918 69 0 0.0 0.0 0.00 0.00 0.00 91 1009.9
20260509053418 69 0 0.0 0.0 0.00 0.00 0.00 91 1009.9
20260509052918 69 0 0.0 0.0 0.00 0.00 0.00 91 1009.9
20260509051919 70 0 0.0 0.0 0.00 0.00 0.00 91 1009.8
20260509051419 70 0 0.0 0.0 0.00 0.00 0.00 91 1009.8
20260509050919 70 0 0.0 0.0 0.00 0.00 0.00 91 1009.8
20260509050419 70 0 0.0 0.0 0.00 0.00 0.00 91 1009.9
20260509045920 70 0 0.0 0.0 0.00 0.00 0.00 91 1010.2
20260509044418 70 0 0.0 0.0 0.00 0.00 0.00 91 1010.4
20260509043919 70 0 0.0 0.0 0.00 0.00 0.00 91 1010.4
20260509043418 70 0 0.0 0.0 0.00 0.00 0.00 91 1010.4
20260509042418 70 0 0.0 0.0 0.00 0.01 0.00 91 1010.5
20260509041920 70 0 0.0 0.0 0.00 0.01 0.00 91 1010.4
20260509041420 70 0 0.0 0.0 0.00 0.01 0.00 90 1010.3
20260509040919 70 0 0.0 0.0 0.00 0.01 0.00 90 1010.2
20260509040419 70 0 0.0 0.0 0.00 0.01 0.00 90 1010.2
20260509035419 70 0 0.0 0.0 0.00 0.01 0.00 90 1010.0
20260509034918 70 0 0.0 0.0 0.00 0.01 0.00 89 1009.9
20260509033919 70 0 0.0 0.0 0.00 0.01 0.00 89 1009.7
20260509033420 70 0 0.0 0.0 0.00 0.01 0.00 88 1009.6
20260509032918 70 0 0.0 0.0 0.00 0.01 0.00 88 1009.4
20260509032420 70 0 0.0 0.0 0.00 0.01 0.00 88 1009.3
20260509031918 70 0 0.0 0.0 0.00 0.01 0.00 88 1009.2
20260509030919 71 0 0.0 0.0 0.00 0.01 0.00 88 1009.2
20260509030419 71 0 0.0 0.0 0.00 0.01 0.00 88 1009.2
20260509025920 71 0 0.0 0.0 0.00 0.01 0.00 88 1009.1
20260509025419 71 0 0.0 0.0 0.00 0.01 0.00 88 1009.0
20260509024919 71 0 0.0 0.0 0.00 0.01 0.00 87 1009.0
20260509024419 72 0 0.0 0.0 0.00 0.01 0.00 87 1008.9
20260509023918 72 0 0.0 0.0 0.00 0.01 0.00 88 1008.9
20260509023419 72 0 0.0 0.0 0.00 0.01 0.00 88 1008.9
20260509022918 72 0 0.0 0.0 0.00 0.01 0.00 87 1009.0
20260509022419 72 0 0.0 0.0 0.00 0.01 0.00 87 1009.0
20260509021919 72 0 0.0 0.0 0.00 0.01 0.00 87 1008.9
20260509021420 72 0 0.0 0.0 0.00 0.01 0.00 87 1008.7
20260509020918 72 0 0.0 0.0 0.00 0.01 0.00 87 1008.4
20260509020419 72 0 0.0 0.0 0.00 0.01 0.00 87 1008.2
20260509015919 73 0 0.0 0.0 0.00 0.01 0.00 87 1008.1
20260509015419 73 0 0.0 0.0 0.00 0.01 0.00 86 1008.1
20260509014920 73 0 0.0 0.0 0.00 0.01 0.00 86 1008.1
20260509014419 73 0 0.0 0.0 0.00 0.01 0.00 86 1008.0
20260509013920 73 0 0.0 0.0 0.00 0.01 0.00 86 1008.0
20260509013418 73 0 0.0 0.0 0.00 0.01 0.00 86 1008.2
20260509012919 73 0 0.0 0.0 0.00 0.01 0.00 85 1008.2
20260509012419 73 0 0.0 0.0 0.00 0.01 0.00 85 1008.1
20260509011918 73 0 0.0 0.0 0.00 0.01 0.00 85 1008.2
20260509011419 73 0 0.0 0.0 0.00 0.01 0.00 85 1008.2
20260509010920 73 0 0.0 0.0 0.00 0.01 0.00 85 1008.3
20260509010419 73 0 0.0 0.0 0.00 0.02 0.00 85 1008.4
20260509005919 73 0 0.0 0.0 0.00 0.02 0.00 84 1008.5
20260509005418 74 0 0.0 0.0 0.00 0.02 0.00 84 1008.5
20260509004419 74 0 0.0 0.0 0.00 0.02 0.00 84 1008.6
20260509003919 74 0 0.0 0.0 0.00 0.02 0.00 83 1008.4
20260509003419 74 0 0.0 0.0 0.00 0.02 0.00 83 1008.5
20260509002918 74 0 0.0 0.0 0.00 0.02 0.00 83 1008.5
20260509002419 74 0 0.0 0.0 0.00 0.02 0.00 83 1008.3
20260509001919 74 0 0.0 0.0 0.00 0.02 0.00 83 1008.4
20260509001419 74 0 0.0 0.0 0.00 0.02 0.00 82 1008.5
20260509000420 74 0 0.0 0.0 0.00 0.02 0.00 82 1008.6
20260508234919 74 0 0.0 0.0 0.00 0.02 0.00 81 1008.5
20260508234420 75 0 0.0 0.0 0.00 0.02 0.00 82 1008.5
20260508233918 75 0 0.0 0.0 0.00 0.02 0.00 81 1008.5
20260508233420 75 0 0.0 0.0 0.00 0.02 0.00 81 1008.4
20260508232919 75 0 0.0 0.0 0.00 0.02 0.00 81 1008.4
20260508232418 75 0 0.0 0.0 0.00 0.02 0.00 81 1008.5
20260508231919 75 0 0.0 0.0 0.00 0.02 0.00 81 1008.4
20260508231419 75 0 0.0 0.0 0.00 0.02 0.00 80 1008.5
20260508230419 75 0 0.0 0.0 0.00 0.02 0.00 80 1008.4
20260508225919 75 0 0.0 0.0 0.00 0.02 0.00 79 1008.4
20260508225419 75 0 0.0 0.0 0.00 0.02 0.00 80 1008.5
20260508224920 75 0 0.0 0.0 0.00 0.02 0.00 79 1008.5
20260508223920 75 0 0.0 0.0 0.00 0.02 0.00 80 1008.4
20260508222919 75 0 0.0 0.0 0.00 0.02 0.00 80 1008.6
20260508222419 75 0 0.0 0.0 0.00 0.02 0.00 80 1008.8
20260508221919 74 0 0.0 0.0 0.00 0.02 0.00 80 1008.9
20260508221420 74 0 0.0 0.0 0.00 0.02 0.00 80 1009.0
20260508220421 73 0 0.0 0.0 0.00 0.02 0.00 80 1009.3
20260508215920 73 0 0.0 0.0 0.00 0.02 0.00 79 1009.4
20260508215419 74 0 0.0 0.0 0.00 0.02 0.00 79 1009.5
20260508214919 74 0 0.0 0.0 0.00 0.02 0.00 79 1009.3
20260508214419 74 0 0.0 0.0 0.00 0.02 0.00 80 1009.3
20260508213920 74 0 0.0 0.0 0.00 0.02 0.00 80 1009.2
20260508213419 74 0 0.0 0.0 0.00 0.02 0.00 80 1009.3
20260508212919 73 0 0.0 0.0 0.00 0.02 0.00 81 1009.5
20260508212420 73 0 0.0 0.0 0.00 0.02 0.00 81 1009.5
20260508211919 73 0 0.0 0.0 0.00 0.02 0.00 81 1009.5
20260508211419 72 0 0.0 0.0 0.00 0.02 0.00 82 1009.7
20260508210920 72 0 0.0 0.0 0.00 0.02 0.00 82 1009.9
20260508210419 72 0 0.0 0.0 0.00 0.02 0.00 82 1010.0
20260508205919 72 0 0.0 0.0 0.00 0.02 0.00 83 1010.1
20260508204920 71 0 0.0 0.0 0.00 0.02 0.00 82 1010.3
20260508204419 71 0 0.0 0.0 0.00 0.02 0.00 82 1010.5
20260508203919 71 0 0.0 0.0 0.00 0.02 0.00 82 1010.6
20260508203419 71 0 0.0 0.0 0.00 0.02 0.00 82 1010.6
20260508202421 71 0 0.0 0.0 0.00 0.02 0.00 82 1010.7
20260508201919 71 0 0.0 0.0 0.00 0.02 0.00 82 1010.7
20260508200919 71 0 0.0 0.0 0.00 0.02 0.00 82 1010.8